Flag for China Weather past 2 weeks in Tianjin, Tianjin Municipality, China

Now
72 °F

Clear.


Feels Like: 75 °F
Forecast: 67 / 85 °F
Wind: 8 mph from East

Location: Tianjin / Zhangguizhu

Current Time: Jul 3, 2015 at 3:29:26 AM

Latest Report: Jul 3, 2015 at 2:30 AM


Visibility: 4 mi

Pressure: 29.71 "Hg

Humidity: 69%

Dew point: 61 °F

Location of TianjinLocation

Historic Weather in Tianjin — Graph

°F

Tianjin temperature yesterday

Maximum temperature yesterday: 91 °F (at 1:30 PM)
Minimum temperature yesterday: 64 °F (at 4:30 AM)
Average temperature yesterday: 80 °F

Past Weeks' High & Low Weather Summary

 TemperatureHumidityPressure
High93 °F (Jul 1, 1:00 PM)94% (Jun 26, 11:00 AM)29.89 "Hg (Jun 26, 11:00 AM)
Low63 °F (Jun 20, 2:00 AM)12% (Jun 18, 2:30 PM)29.39 "Hg (Jul 1, 4:00 PM)
Average77 °F58%29.67 "Hg
* Reported Jun 18 2:00 AM — Jul 3 2:30 AM, Tianjin, Weather by CustomWeather, © 2015

Note: Actual official high and low records may vary slightly from our data, if they occured in-between our weather recording intervals... More about our weather records

Advertising

Tianjin weather history for previous 24 hours

 ConditionsComfort  
Time TempWeatherWind HumidityBarometerVisibility
2:30 AM
Fri, Jul 3
72 °FClear.8 mph69%29.71 "Hg4 mi
2:00 AM72 °FClear.8 mph69%29.71 "Hg4 mi
1:30 AM73 °FClear.10 mph65%29.68 "Hg5 mi
1:00 AM73 °FClear.17 mph61%29.68 "Hg5 mi
12:30 AM75 °FClear.13 mph54%29.68 "Hg10 mi
12:00 AM75 °FClear.10 mph54%29.65 "Hg10 mi
11:30 PM
Thu, Jul 2
75 °FClear.15 mph57%29.65 "Hg10 mi
11:00 PM81 °FClear.3 mph37%29.62 "Hg10 mi
10:30 PM77 °FClear.1 mph47%29.62 "Hg10 mi
10:00 PM79 °FClear.1 mph42%29.62 "Hg10 mi
9:30 PM79 °FClear.1 mph45%29.62 "Hg10 mi
9:00 PM81 °FClear.3 mph37%29.59 "Hg10 mi
8:30 PM81 °FPassing clouds.8 mph34%29.59 "HgN/A
8:00 PM81 °FPassing clouds.3 mph37%29.59 "HgN/A
7:30 PM82 °FScattered clouds.8 mph35%29.56 "HgN/A
7:00 PM84 °FPartly sunny.8 mph33%29.56 "HgN/A
6:30 PM88 °FScattered clouds.3 mph22%29.56 "HgN/A
6:00 PM91 °FScattered clouds.1 mph17%29.53 "HgN/A
5:30 PM90 °FScattered clouds.3 mph18%29.53 "HgN/A
5:00 PM91 °FScattered clouds.3 mph18%29.53 "HgN/A
4:30 PM90 °FScattered clouds.6 mph20%29.53 "HgN/A
4:00 PM90 °FScattered clouds.6 mph20%29.56 "HgN/A
3:30 PM91 °FScattered clouds.3 mph18%29.56 "HgN/A
3:00 PM90 °FScattered clouds.8 mph18%29.56 "HgN/A
2:30 PM90 °FPassing clouds.10 mph17%29.56 "HgN/A
2:00 PM91 °FPassing clouds.15 mph15%29.56 "HgN/A
1:30 PM91 °FPassing clouds.15 mph16%29.56 "HgN/A
1:00 PM90 °FPassing clouds.8 mph20%29.59 "HgN/A
12:00 PM88 °FPassing clouds.8 mph22%29.59 "HgN/A
11:30 AM88 °FPassing clouds.8 mph22%29.59 "HgN/A
11:00 AM86 °FPassing clouds.6 mph27%29.59 "HgN/A
10:30 AM86 °FPassing clouds.8 mph29%29.62 "HgN/A
10:00 AM84 °FPassing clouds.10 mph29%29.62 "HgN/A
9:30 AM82 °FSunny.10 mph32%29.62 "Hg10 mi
9:00 AM81 °FPassing clouds.10 mph32%29.62 "HgN/A
8:30 AM81 °FSunny.13 mph34%29.62 "Hg10 mi
8:00 AM79 °FSunny.13 mph37%29.62 "Hg10 mi
7:30 AM75 °FSunny.10 mph44%29.59 "Hg10 mi
7:00 AM73 °FSunny.10 mph47%29.59 "Hg10 mi
6:30 AM72 °FSunny.8 mph53%29.59 "Hg10 mi
5:30 AM66 °FSunny.8 mph64%29.59 "Hg10 mi
5:00 AM64 °FSunny.8 mph68%29.56 "Hg10 mi
4:30 AM64 °FClear.6 mph68%29.56 "Hg10 mi
4:00 AM66 °FClear.6 mph64%29.56 "Hg10 mi
3:30 AM66 °FClear.6 mph64%29.56 "Hg10 mi
3:00 AM66 °FClear.8 mph64%29.56 "Hg10 mi
Weather by CustomWeather, © 2015

See weather overviewHow to use our weather pages